Shelton, WA

5:27 AM PDT on September 18, 2019 (GMT -0700)
Sanderson

Weather History for KSHN - July, 2019

Change the Weather History Date:

Tuesday, July 23, 2019

  Actual Average Record
Temperature  
Mean Temperature 66 °F -  
Max Temperature 73 °F 77 °F 100 °F (2004)
Min Temperature 57 °F 54 °F 43 °F (1963)
Cooling Degree Days 1    
Growing Degree Days 16 (Base 50)    
Moisture  
Dew Point 54 °F    
Average Humidity 73    
Maximum Humidity 90    
Minimum Humidity 45    
Precipitation  
Precipitation 0.00 in - - ()
Sea Level Pressure  
Sea Level Pressure 30.07 in    
Wind  
Wind Speed 8 mph (WSW)    
Max Wind Speed 20 mph    
Max Gust Speed 26 mph    
Visibility 10 miles    
Events      
Averages and records for this station are not official NWS values.
T = Trace of Precipitation, MM = Missing Value Source: NWS Daily Summary

Daily Weather History Graph

Daily Weather History Graph

Search for Another Location

Airport or City:

Astronomy

Jul. 23, 2019 Rise Set
Actual Time 5:40 AM PDT 8:57 PM PDT
Civil Twilight 5:03 AM PDT 9:34 PM PDT
Nautical Twilight 4:14 AM PDT 10:22 PM PDT
Astronomical Twilight 3:12 AM PDT 11:23 PM PDT
Moon No Moon Rise 12:23 PM PDT (7/23)
Length of Visible Light 16h 30m
Length of Day
15h 16m
Waning Gibbous, 62% of the Moon is Illuminated
Jul 23
Waning Gibbous
Jul 24
Last Quarter
Jul 31
New
Aug 7
First Quarter
Aug 15
Full

Hourly Weather History & Observations

Time (PDT) Temp. Dew Point Humidity Pressure Visibility Wind Dir Wind Speed Gust Speed Precip Events Conditions
12:50 AM 60.8 °F 55.4 °F 82% 30.06 in 10.0 mi WSW 6.9 mph - N/A   Scattered Clouds
12:53 AM 60.1 °F 55.9 °F 86% 30.06 in 10.0 mi WSW 5.8 mph - N/A   Scattered Clouds
1:02 AM 60.1 °F 55.9 °F 86% 30.05 in 10.0 mi WSW 6.9 mph - N/A   Mostly Cloudy
1:53 AM 60.1 °F 55.9 °F 86% 30.04 in 10.0 mi WSW 9.2 mph - N/A   Overcast
2:53 AM 60.1 °F 55.9 °F 86% 30.05 in 10.0 mi WSW 6.9 mph - N/A   Overcast
3:53 AM 60.1 °F 55.9 °F 86% 30.05 in 10.0 mi West 4.6 mph - N/A   Overcast
4:45 AM 60.1 °F 55.9 °F 86% 30.06 in 10.0 mi West 5.8 mph - N/A   Overcast
4:53 AM 60.1 °F 55.9 °F 86% 30.06 in 10.0 mi West 5.8 mph - N/A   Overcast
5:09 AM 60.1 °F 55.9 °F 86% 30.07 in 10.0 mi West 4.6 mph - N/A   Overcast
5:53 AM 59.0 °F 55.9 °F 90% 30.07 in 7.0 mi West 4.6 mph - N/A   Overcast
6:53 AM 59.0 °F 55.9 °F 90% 30.07 in 10.0 mi West 4.6 mph - N/A   Overcast
7:53 AM 60.1 °F 55.0 °F 83% 30.08 in 10.0 mi South 4.6 mph - N/A   Overcast
8:53 AM 61.0 °F 55.9 °F 83% 30.09 in 7.0 mi Calm Calm - N/A   Overcast
9:27 AM 62.1 °F 55.0 °F 78% 30.08 in 10.0 mi South 3.5 mph - N/A   Overcast
9:53 AM 62.1 °F 55.0 °F 78% 30.08 in 10.0 mi Calm Calm - N/A   Overcast
10:53 AM 63.0 °F 55.0 °F 75% 30.08 in 10.0 mi SW 8.1 mph - N/A   Overcast
11:53 AM 64.0 °F 55.9 °F 75% 30.08 in 10.0 mi SW 6.9 mph - N/A   Overcast
12:24 PM 66.9 °F 57.0 °F 70% 30.08 in 10.0 mi South 5.8 mph - N/A   Overcast
12:53 PM 70.0 °F 57.0 °F 63% 30.07 in 10.0 mi Variable 3.5 mph - N/A   Mostly Cloudy
1:53 PM 73.9 °F 55.0 °F 52% 30.06 in 10.0 mi WSW 12.7 mph - N/A   Overcast
2:53 PM 72.0 °F 54.0 °F 53% 30.06 in 10.0 mi WSW 12.7 mph - N/A   Mostly Cloudy
3:53 PM 73.0 °F 53.1 °F 49% 30.06 in 10.0 mi SW 15.0 mph 18.4 mph N/A   Mostly Cloudy
4:53 PM 71.1 °F 51.1 °F 49% 30.06 in 10.0 mi West 17.3 mph 26.5 mph N/A   Clear
5:53 PM 71.1 °F 48.9 °F 45% 30.06 in 10.0 mi WSW 19.6 mph - N/A   Clear
6:53 PM 69.1 °F 48.9 °F 49% 30.06 in 10.0 mi WSW 19.6 mph 25.3 mph N/A   Clear
7:53 PM 66.0 °F 50.0 °F 56% 30.06 in 10.0 mi WSW 16.1 mph 25.3 mph N/A   Clear
8:53 PM 63.0 °F 50.0 °F 63% 30.06 in 10.0 mi WSW 18.4 mph 24.2 mph N/A   Clear
9:53 PM 60.1 °F 51.1 °F 72% 30.09 in 10.0 mi WSW 16.1 mph 20.7 mph N/A   Partly Cloudy
10:53 PM 59.0 °F 51.1 °F 75% 30.10 in 10.0 mi WSW 16.1 mph - N/A   Clear
11:53 PM 57.9 °F 51.1 °F 78% 30.12 in 10.0 mi WSW 17.3 mph 26.5 mph N/A   Clear